This is the latest recevied weather packets stored in our database for station/object N5GC-2. If no packets are shown the sender has not sent any weather packets the latest 10 day(s).
| Time | Temp. | Humidity | Pressure | Rain* | Wind** | Luminosity | Snow |
|---|---|---|---|---|---|---|---|
| 1778172096 | 20.56° C | 46% | - | 0 mm | - | - | - |
| 1778171793 | 21.11° C | 40% | - | 0 mm | - | - | - |
| 1778171491 | 21.11° C | 41% | - | 0 mm | - | - | - |
| 1778171186 | 21.11° C | 40% | - | 0 mm | - | - | - |
| 1778170883 | 21.11° C | 38% | - | 0 mm | - | - | - |
| 1778170579 | 20.56° C | 37% | - | 0 mm | - | - | - |
| 1778170276 | 20.56° C | 40% | - | 0 mm | - | - | - |
| 1778169972 | 20° C | 41% | - | 0 mm | - | - | - |
| 1778169669 | 20° C | 43% | - | 0 mm | - | - | - |
| 1778169364 | 19.44° C | 41% | - | 0 mm | - | - | - |
| 1778169061 | 19.44° C | 45% | - | 0 mm | - | - | - |
| 1778168758 | 18.89° C | 43% | - | 0 mm | - | - | - |
| 1778168455 | 18.89° C | 46% | - | 0 mm | - | - | - |
| 1778168152 | 18.89° C | 46% | - | 0 mm | - | - | - |
| 1778167848 | 18.33° C | 46% | - | 0 mm | - | - | - |
| 1778167544 | 17.78° C | 46% | - | 0 mm | - | - | - |
| 1778167240 | 17.22° C | 48% | - | 0 mm | - | - | - |
| 1778166936 | 16.67° C | 48% | - | 0 mm | - | - | - |
| 1778166634 | 16.11° C | 63% | - | 0 mm | - | - | - |
| 1778166331 | 15.56° C | 65% | - | 0 mm | - | - | - |
| 1778166028 | 15° C | 67% | - | 0 mm | - | - | - |
| 1778165722 | 14.44° C | 68% | - | 0 mm | - | - | - |
| 1778165421 | 13.89° C | 73% | - | 0 mm | - | - | - |
| 1778165117 | 13.33° C | 73% | - | 0 mm | - | - | - |
| 1778164814 | 13.33° C | 77% | - | 0 mm | - | - | - |
* Rain latest hour (hover to see other rain measurements)
** Current wind speed in m/s (hover to see current wind gust speed)